Location: ?astrovice
(49.6513°N, 14.9287°E)
Time: 08:40:43
(UTC+00:00)

Cosmos 921 Rocket - Pass Details

Date: 09 April 2020
Orbit: 572 x 632 km, 75.8° (Epoch: 23 May)

Event Time Altitude Azimuth Distance (km) Brightness Sun altitude
Rises 18:59:09 0° 337° (NNW) 2,792 7.3 -12.1°
Reaches altitude 10° 19:01:22 10° 335° (NNW) 1,889 6.4 -12.4°
Maximum altitude 19:05:32 70° 253° (WSW) 615 3.2 -13.0°
Drops below altitude 10° 19:09:42 10° 169° (S) 1,887 5.2 -13.5°
Enters shadow 19:09:44 10° 169° (S) 1,899 5.2 -13.5°
